YO3IEZ-WX Weather Reports


time (UTC)temp
C
wind
direction
speed
KPH
gust
KPH
rain 1hr
cm
rain 24hr
cm
rain mn
cm
humidity
%
barometer
mb
20260504021554 9 300 11.3 25.7 0.00 0.00 0.00 59 1007.1
20260504020054 9 298 9.7 19.3 0.00 0.00 0.00 59 1007.3
20260504014558 10 287 9.7 20.9 0.00 0.00 0.00 58 1007.3
20260504013054 10 269 6.4 19.3 0.00 0.00 0.00 57 1007.4
20260504011552 10 294 9.7 22.5 0.00 0.00 0.00 57 1007.4
20260504010100 10 296 9.7 17.7 0.00 0.00 0.00 59 1007.4
20260504004553 10 292 6.4 20.9 0.00 0.00 0.00 59 1007.6
20260504003053 10 293 6.4 16.1 0.00 0.00 0.00 60 1007.6
20260504001550 9 292 6.4 17.7 0.00 0.00 0.00 61 1007.8
20260504000116 9 282 8.0 17.7 0.00 0.00 0.00 61 1007.7
20260503234557 9 281 4.8 16.1 0.00 0.00 0.00 61 1007.8
20260503233051 10 299 4.8 17.7 0.00 0.00 0.00 61 1007.8
20260503231555 10 327 8.0 19.3 0.00 0.00 0.00 60 1007.9
20260503230051 10 275 4.8 16.1 0.00 0.00 0.00 60 1008.0
20260503224552 10 317 4.8 14.5 0.00 0.00 0.00 60 1008.0
20260503223051 10 341 8.0 16.1 0.00 0.00 0.00 58 1008.0
20260503221558 10 251 4.8 14.5 0.00 0.00 0.00 57 1008.1
20260503220050 11 0 4.8 16.1 0.00 0.00 0.00 55 1008.2
20260503214550 11 277 4.8 14.5 0.00 0.00 0.00 54 1008.3
20260503213105 11 288 4.8 14.5 0.00 0.00 0.00 53 1008.5
20260503211544 11 304 4.8 12.9 0.00 0.00 0.00 54 1008.6
20260503210049 11 282 4.8 12.9 0.00 0.00 0.00 53 1008.7
20260503204551 12 294 4.8 12.9 0.00 0.00 0.00 52 1008.8
20260503203106 12 293 4.8 11.3 0.00 0.00 0.00 52 1008.8
20260503201548 12 271 0.0 9.7 0.00 0.00 0.00 51 1009.0
20260503200051 12 0 0.0 9.7 0.00 0.00 0.00 52 1009.2
20260503194555 12 211 0.0 8.0 0.00 0.00 0.00 51 1009.1
20260503193051 12 202 0.0 3.2 0.00 0.00 0.00 51 1009.3
20260503191547 12 202 1.6 4.8 0.00 0.00 0.00 51 1009.4
20260503190050 12 202 1.6 4.8 0.00 0.00 0.00 51 1009.3
20260503184546 12 202 1.6 4.8 0.00 0.00 0.00 52 1009.3
20260503183048 12 202 1.6 4.8 0.00 0.00 0.00 51 1009.3
20260503181559 12 201 0.0 3.2 0.00 0.00 0.00 51 1009.3
20260503180048 12 0 0.0 3.2 0.00 0.00 0.00 46 1009.1
20260503174547 13 0 0.0 4.8 0.00 0.00 0.00 45 1009.1
20260503173057 13 202 1.6 4.8 0.00 0.00 0.00 44 1008.9
20260503171549 13 202 3.2 6.4 0.00 0.00 0.00 44 1008.9
20260503081549 12 5 6.4 20.9 0.00 0.00 0.00 47 1012.6
20260503071600 11 124 9.7 22.5 0.00 0.00 0.00 48 1012.5
20260503060104 10 132 6.4 19.3 0.00 0.00 0.00 58 1012.5
20260503054547 9 41 6.4 16.1 0.00 0.00 0.00 60 1012.4
20260503053053 8 83 6.4 12.9 0.00 0.00 0.00 62 1012.3
20260503051550 8 36 3.2 16.1 0.00 0.00 0.00 64 1012.3
20260503050055 7 61 3.2 14.5 0.00 0.00 0.00 67 1012.3
20260503044551 7 92 3.2 11.3 0.00 0.00 0.00 69 1012.1
20260503043055 7 81 3.2 9.7 0.00 0.00 0.00 71 1012.0
20260503041550 6 58 3.2 11.3 0.00 0.00 0.00 73 1012.0
20260503040052 6 42 1.6 6.4 0.00 0.00 0.00 76 1011.9
20260503034551 5 35 1.6 8.0 0.00 0.00 0.00 76 1011.8
20260503033104 5 36 1.6 6.4 0.00 0.00 0.00 77 1011.7
20260503031545 5 0 3.2 8.0 0.00 0.00 0.00 76 1011.6
20260503030048 5 40 3.2 8.0 0.00 0.00 0.00 76 1011.4
20260503024552 5 24 3.2 12.9 0.00 0.00 0.00 75 1011.5
20260503023100 5 69 3.2 8.0 0.00 0.00 0.00 75 1011.3